"2016-03-27 00:00:00",1493211,3.434,248.7,7.688,1.17,1.314,99.88555,-0.991,0.214,54.29,0,109.9,13.26,-0.24,210.7
"2016-03-27 00:00:30",1493212,4.125,248.6,7.274,1.384,2.469,99.88838,-0.984,0.231,54.15,0,110,13.26,-0.24,210.6
"2016-03-27 00:01:00",1493213,3.885,250.1,6.113,1.37,2.197,99.89091,-0.978,0.215,54.02,0,109.9,13.26,-0.23,212.1
"2016-03-27 00:01:30",1493214,3.92,250.1,6.046,1.374,2.264,99.89176,-0.975,0.24,53.96,0,109.9,13.26,-0.23,212.1
"2016-03-27 00:02:00",1493215,3.78,246.3,6.439,1.222,1.337,99.89036,-0.979,0.164,53.82,0,110,13.26,-0.23,208.3
"2016-03-27 00:02:30",1493216,3.896,244,7.512,1.277,1.776,99.89007,-0.98,0.294,53.96,0,109.9,13.26,-0.23,206.0
"2016-03-27 00:03:00",1493217,4.33,247.6,6.223,1.317,2.685,99.89091,-0.978,0.234,53.95,0,109.9,13.26,-0.23,209.6
"2016-03-27 00:03:30",1493218,3.659,240.7,6.203,1.277,1.815,99.88923,-0.982,0.238,53.95,0,109.9,13.26,-0.23,202.7
"2016-03-27 00:04:00",1493219,3.569,242.5,6.952,1.284,2.075,99.88527,-0.992,0.268,54.01,0,109.9,13.26,-0.24,204.5
"2016-03-27 00:04:30",1493220,3.819,232,10.32,1.318,1.947,99.88358,-0.996,0.194,53.96,0,109.9,13.26,-0.25,194.0
"2016-03-27 00:05:00",1493221,2.635,235.7,4.983,1.159,1.441,99.88272,-0.999,0.238,54.07,0,109.9,13.26,-0.25,197.7
"2016-03-27 00:05:30",1493222,4.076,238.4,5.889,1.377,2.908,99.88216,-1,0.261,54.11,0,109.9,13.26,-0.25,200.4
"2016-03-27 00:06:00",1493223,3.584,241,8.85,1.241,1.41,99.88245,-0.999,0.214,54.06,0,109.9,13.26,-0.25,203.0
"2016-03-27 00:06:30",1493224,4.064,244.8,7.107,1.337,2.333,99.88103,-1.003,0.279,54.11,0,109.9,13.27,-0.25,206.8
"2016-03-27 00:07:00",1493225,3.616,247,5.244,1.304,1.765,99.88103,-1.003,0.18,54.01,0,109.9,13.26,-0.25,209.0
"2016-03-27 00:07:30",1493226,3.891,239.5,5.545,1.325,2.32,99.88018,-1.005,0.299,54.15,0,109.9,13.27,-0.26,201.5
"2016-03-27 00:08:00",1493227,3.936,245.3,8.43,1.366,2.378,99.8765,-1.014,0.197,54.05,0,109.9,13.26,-0.27,207.3
"2016-03-27 00:08:30",1493228,3.482,244.6,7.373,1.386,2.304,99.87877,-1.009,0.232,54.1,0,109.9,13.27,-0.26,206.6
"2016-03-27 00:09:00",1493229,3.647,246.9,8.31,1.506,2.397,99.8765,-1.014,0.238,54.15,0,109.9,13.27,-0.27,208.9
"2016-03-27 00:09:30",1493230,3.912,243.4,8.62,1.349,2.403,99.86916,-1.033,0.193,54.1,0,109.9,13.27,-0.28,205.4
"2016-03-27 00:10:00",1493231,3.573,244,7.326,1.35,2.164,99.86463,-1.045,0.256,54.17,0,109.9,13.27,-0.30,206.0
"2016-03-27 00:10:30",1493232,3.85,245,7.373,1.347,2.818,99.86436,-1.045,0.229,54.2,0,109.9,13.27,-0.30,207.0
"2016-03-27 00:11:00",1493233,3.345,240.3,6.786,1.226,1.919,99.86436,-1.045,0.182,54.19,0,109.9,13.27,-0.30,202.3
"2016-03-27 00:11:30",1493234,2.687,231,6.539,1.123,1.27,99.86323,-1.048,0.212,54.29,0,109.9,13.27,-0.30,193.0
"2016-03-27 00:12:00",1493235,3.456,238.4,6.44,1.245,1.954,99.85672,-1.065,0.194,54.36,0,109.9,13.26,-0.32,200.4
"2016-03-27 00:12:30",1493236,3.742,227.5,11.02,1.366,2.855,99.85192,-1.077,0.182,54.42,0,109.9,13.27,-0.33,189.5
"2016-03-27 00:13:00",1493237,3.737,231.2,10.75,1.432,2.325,99.84457,-1.096,0.172,54.34,0,109.9,13.27,-0.35,193.2
"2016-03-27 00:13:30",1493238,3.428,237.2,7.913,1.366,2.337,99.8361,-1.117,0.217,54.45,0,109.9,13.27,-0.37,199.2
"2016-03-27 00:14:00",1493239,3.517,234,8.01,1.372,1.736,99.83073,-1.131,0.102,54.42,0,109.9,13.27,-0.38,196.0
"2016-03-27 00:14:30",1493240,2.78,215.3,7.291,1.245,2.57,99.83073,-1.131,0.213,54.58,0,109.9,13.27,-0.38,177.3
"2016-03-27 00:15:00",1493241,3.485,234.7,9.17,1.443,3.016,99.83129,-1.13,0.142,54.47,0,109.9,13.27,-0.38,196.7
"2016-03-27 00:15:30",1493242,2.986,233,6.211,1.147,1.513,99.83271,-1.126,0.145,54.53,0,109.9,13.27,-0.38,195.0
"2016-03-27 00:16:00",1493243,3.56,234.9,8.37,1.273,2.183,99.83355,-1.124,0.142,54.63,0,109.9,13.27,-0.38,196.9
"2016-03-27 00:16:30",1493244,3.668,233,6.926,1.194,1.879,99.83468,-1.121,0.108,54.65,0,109.9,13.26,-0.37,195.0
"2016-03-27 00:17:00",1493245,4.027,234.8,8.06,1.329,2.938,99.83609,-1.117,0.176,54.82,0,109.9,13.26,-0.37,196.8
"2016-03-27 00:17:30",1493246,3.469,232.9,5.986,1.237,1.714,99.83609,-1.117,0.133,54.8,0,109.9,13.26,-0.37,194.9
"2016-03-27 00:18:00",1493247,3.663,238.2,6.852,1.328,2.543,99.83835,-1.112,0.19,54.87,0,109.9,13.26,-0.36,200.2
"2016-03-27 00:18:30",1493248,3.807,239.2,7.63,1.364,2.945,99.8392,-1.11,0.144,54.86,0,109.9,13.27,-0.36,201.2
"2016-03-27 00:19:00",1493249,3.193,236.4,7.614,1.155,1.24,99.83948,-1.109,0.105,54.82,0,109.9,13.27,-0.36,198.4
"2016-03-27 00:19:30",1493250,3.788,241.3,5.954,1.388,2.353,99.8406,-1.106,0.206,54.92,0,109.9,13.26,-0.36,203.3
"2016-03-27 00:20:00",1493251,3.949,242.7,7.37,1.362,2.265,99.84512,-1.094,0.163,54.87,0,109.9,13.27,-0.35,204.7
"2016-03-27 00:20:30",1493252,3.907,242.5,7.377,1.364,2.436,99.84569,-1.093,0.23,54.95,0,109.9,13.27,-0.34,204.5
"2016-03-27 00:21:00",1493253,3.623,241.3,6.618,1.308,1.75,99.85642,-1.066,0.147,54.86,0,109.9,13.27,-0.32,203.3
"2016-03-27 00:21:30",1493254,3.544,242.7,6.236,1.246,2.312,99.86235,-1.05,0.209,54.94,0,109.9,13.27,-0.30,204.7
"2016-03-27 00:22:00",1493255,4.304,247.2,6.701,1.393,2.903,99.86462,-1.045,0.185,54.86,0,109.9,13.27,-0.30,209.2
"2016-03-27 00:22:30",1493256,3.929,243.8,6.001,1.351,2.4,99.86829,-1.035,0.217,54.89,0,109.9,13.27,-0.29,205.8
"2016-03-27 00:23:00",1493257,3.193,242.2,7.603,1.167,1.601,99.8697,-1.032,0.183,54.83,0,109.9,13.28,-0.28,204.2
"2016-03-27 00:23:30",1493258,3.994,247.2,7.033,1.36,2.942,99.86913,-1.033,0.174,54.81,0,109.9,13.27,-0.28,209.2
"2016-03-27 00:24:00",1493259,3.992,246.8,8.21,1.353,2.946,99.86601,-1.041,0.22,54.81,0,109.9,13.28,-0.29,208.8
"2016-03-27 00:24:30",1493260,3.606,242.2,6.811,1.353,1.82,99.85839,-1.061,0.14,54.72,0,109.9,13.27,-0.31,204.2
"2016-03-27 00:25:00",1493261,3.839,246.1,7.457,1.396,2.32,99.85896,-1.059,0.164,54.74,0,109.9,13.28,-0.31,208.1
"2016-03-27 00:25:30",1493262,3.176,244.7,6.375,1.223,1.837,99.85896,-1.059,0.218,54.78,0,109.9,13.28,-0.31,206.7
"2016-03-27 00:26:00",1493263,3.682,241.9,8.47,1.385,2.759,99.86092,-1.054,0.178,54.76,0,109.9,13.28,-0.31,203.9
"2016-03-27 00:26:30",1493264,3.3,242.2,6.475,1.253,2.535,99.86092,-1.054,0.145,54.72,0,109.9,13.28,-0.31,204.2
"2016-03-27 00:27:00",1493265,3.142,244.8,5.48,1.217,2.198,99.85329,-1.074,0.198,54.8,0,109.9,13.28,-0.33,206.8
"2016-03-27 00:27:30",1493266,3.687,249.6,6.879,1.338,2.823,99.84621,-1.092,0.165,54.82,0,109.9,13.28,-0.34,211.6
"2016-03-27 00:28:00",1493267,3.266,239.1,7.372,1.294,2.037,99.83576,-1.118,0.088,54.79,0,109.9,13.29,-0.37,201.1
"2016-03-27 00:28:30",1493268,3.112,243.7,6.506,1.255,2.067,99.82983,-1.133,0.122,54.86,0,109.9,13.28,-0.39,205.7
"2016-03-27 00:29:00",1493269,3.982,243.4,7.035,1.337,3.181,99.83039,-1.132,0.17,54.92,0,109.9,13.28,-0.38,205.4
"2016-03-27 00:29:30",1493270,3.001,240.6,6.467,1.214,1.85,99.8253,-1.145,0.062,54.87,0,109.9,13.29,-0.40,202.6
"2016-03-27 00:30:00",1493271,3.753,246.4,7.475,1.327,3.192,99.81314,-1.176,0.129,54.98,0,109.9,13.29,-0.43,208.4
"2016-03-27 00:30:30",1493272,3.298,242.9,5.554,1.165,1.917,99.80212,-1.204,-0.013,54.9,0,109.9,13.29,-0.46,204.9
"2016-03-27 00:31:00",1493273,3.395,248,7.468,1.31,2.252,99.79647,-1.218,0.053,55,0,109.9,13.29,-0.47,210.0
"2016-03-27 00:31:30",1493274,3.228,244.9,7.31,1.242,2.19,99.79279,-1.228,0.061,55.09,0,109.9,13.29,-0.48,206.9
"2016-03-27 00:32:00",1493275,4.284,248.8,7.044,1.299,3.735,99.77753,-1.267,0.097,55.19,0,109.9,13.29,-0.52,210.8
"2016-03-27 00:32:30",1493276,3.669,245,7.371,1.323,2.289,99.76566,-1.297,-0.026,55.12,0,109.9,13.29,-0.55,207.0
"2016-03-27 00:33:00",1493277,3.605,244.1,7.467,1.26,2.376,99.76255,-1.305,0.011,55.25,0,109.9,13.28,-0.56,206.1
"2016-03-27 00:33:30",1493278,3.847,246.6,6.036,1.391,2.559,99.75096,-1.334,-0.052,55.23,0,109.9,13.28,-0.59,208.6
"2016-03-27 00:34:00",1493279,3.548,244.3,7.201,1.34,2.282,99.73258,-1.381,-0.068,55.31,0,109.9,13.28,-0.63,206.3
"2016-03-27 00:34:30",1493280,3.594,246.6,6.976,1.356,2.752,99.72863,-1.391,-0.058,55.44,0,109.8,13.28,-0.64,208.6
"2016-03-27 00:35:00",1493281,3.711,250.1,7.612,1.289,2.978,99.72128,-1.41,-0.035,55.53,0,109.8,13.29,-0.66,212.1
"2016-03-27 00:35:30",1493282,3.967,249.3,7.176,1.338,2.84,99.71138,-1.435,-0.135,55.51,0,109.8,13.29,-0.69,211.3
"2016-03-27 00:36:00",1493283,3.511,246.8,6.892,1.269,1.928,99.6995,-1.466,-0.181,55.6,0,109.8,13.29,-0.72,208.8
"2016-03-27 00:36:30",1493284,3.556,245.2,7.024,1.325,2.047,99.69553,-1.476,-0.145,55.73,0,109.8,13.29,-0.73,207.2
"2016-03-27 00:37:00",1493285,3.56,248,6.001,1.252,2.356,99.68026,-1.515,-0.21,55.78,0,109.8,13.29,-0.77,210.0
"2016-03-27 00:37:30",1493286,3.986,253,7.676,1.362,3.25,99.67262,-1.534,-0.128,55.96,0,109.8,13.29,-0.79,215.0
"2016-03-27 00:38:00",1493287,3.815,250.1,7.025,1.297,2.352,99.66724,-1.548,-0.314,55.88,0,109.9,13.29,-0.80,212.1
"2016-03-27 00:38:30",1493288,4.456,251.5,6.78,1.333,3.531,99.64715,-1.599,-0.171,56.13,0,109.8,13.29,-0.85,213.5
"2016-03-27 00:39:00",1493289,3.648,244,6.306,1.308,1.915,99.64404,-1.607,-0.36,56.06,0,109.8,13.3,-0.86,206.0
"2016-03-27 00:39:30",1493290,3.694,246.8,7.248,1.293,2.514,99.62086,-1.666,-0.206,56.4,0,109.8,13.3,-0.92,208.8
"2016-03-27 00:40:00",1493291,3.944,250,6.812,1.317,2.889,99.61153,-1.69,-0.352,56.41,0,109.8,13.3,-0.94,212.0
"2016-03-27 00:40:30",1493292,3.91,247.8,6.931,1.346,2.865,99.60897,-1.696,-0.35,56.53,0,109.8,13.3,-0.95,209.8
"2016-03-27 00:41:00",1493293,4.225,252.9,6.901,1.3,3.052,99.59115,-1.742,-0.411,56.62,0,109.8,13.3,-1.00,214.9
"2016-03-27 00:41:30",1493294,4.365,253.7,7.04,1.348,3.312,99.5852,-1.757,-0.415,56.73,0,109.8,13.3,-1.01,215.7
"2016-03-27 00:42:00",1493295,4.319,253.2,7.038,1.346,3.123,99.57247,-1.789,-0.426,56.85,0,109.8,13.3,-1.04,215.2
"2016-03-27 00:42:30",1493296,4.163,252,7.366,1.298,2.779,99.55494,-1.834,-0.479,56.95,0,109.8,13.3,-1.09,214.0
"2016-03-27 00:43:00",1493297,4.974,253.3,7.333,1.25,4.136,99.55465,-1.835,-0.47,57.12,0,109.9,13.3,-1.09,215.3
"2016-03-27 00:43:30",1493298,4.262,249.8,9,1.33,3.3,99.53427,-1.887,-0.505,57.28,0,109.8,13.31,-1.14,211.8
"2016-03-27 00:44:00",1493299,4.286,251,7.002,1.335,2.648,99.52493,-1.91,-0.585,57.35,0,109.8,13.31,-1.17,213.0
"2016-03-27 00:44:30",1493300,4.322,249.1,7.226,1.334,3.128,99.52183,-1.918,-0.629,57.46,0,109.8,13.31,-1.17,211.1
"2016-03-27 00:45:00",1493301,4.083,245.9,6.423,1.338,2.406,99.49892,-1.977,-0.643,57.56,0,109.8,13.31,-1.23,207.9
"2016-03-27 00:45:30",1493302,4.315,245.5,7.417,1.296,3.15,99.491,-1.997,-0.647,57.68,0,109.8,13.31,-1.25,207.5
"2016-03-27 00:46:00",1493303,4.085,250.2,7.328,1.342,3.63,99.48733,-2.006,-0.626,57.86,0,109.8,13.31,-1.26,212.2
"2016-03-27 00:46:30",1493304,4.218,251.2,7.132,1.261,2.815,99.47291,-2.043,-0.757,57.87,0,109.7,13.32,-1.30,213.2
"2016-03-27 00:47:00",1493305,4.251,252.8,6.746,1.322,2.992,99.46187,-2.071,-0.74,57.96,0,109.7,13.31,-1.33,214.8
"2016-03-27 00:47:30",1493306,3.759,250.1,7.083,1.241,2.276,99.46098,-2.073,-0.784,58.08,0,109.7,13.32,-1.33,212.1
"2016-03-27 00:48:00",1493307,4.238,251.6,6.592,1.311,3.029,99.4457,-2.112,-0.767,58.25,0,109.7,13.31,-1.37,213.6
"2016-03-27 00:48:30",1493308,4.351,253,6.738,1.383,3.363,99.43803,-2.132,-0.816,58.37,0,109.7,13.32,-1.39,215.0
"2016-03-27 00:49:00",1493309,4.13,250.3,7.312,1.353,2.657,99.43774,-2.133,-0.86,58.47,0,109.7,13.33,-1.39,212.3
"2016-03-27 00:49:30",1493310,4.404,253.1,7.326,1.34,3.21,99.42612,-2.162,-0.779,58.71,0,109.7,13.31,-1.42,215.1
"2016-03-27 00:50:00",1493311,4.472,254.5,7.141,1.319,3.026,99.41479,-2.191,-0.909,58.78,0,109.7,13.32,-1.45,216.5
"2016-03-27 00:50:30",1493312,4.542,255.7,7.331,1.368,3.113,99.41477,-2.191,-0.839,58.98,0,109.7,13.32,-1.45,217.7
"2016-03-27 00:51:00",1493313,4.309,255.7,6.562,1.355,2.948,99.39751,-2.235,-0.888,59.04,0,109.7,13.31,-1.49,217.7
"2016-03-27 00:51:30",1493314,4.774,257.8,6.61,1.306,4.019,99.38759,-2.26,-0.908,59.12,0,109.7,13.32,-1.52,219.8
"2016-03-27 00:52:00",1493315,4.094,254.1,6.683,1.335,3.005,99.389,-2.257,-0.997,59.17,0,109.7,13.31,-1.51,216.1
"2016-03-27 00:52:30",1493316,4.246,256.8,7.017,1.353,3.151,99.37825,-2.284,-0.981,59.28,0,109.7,13.32,-1.54,218.8
"2016-03-27 00:53:00",1493317,3.869,253.7,6.38,1.253,2.315,99.36354,-2.322,-1.024,59.34,0,109.7,13.33,-1.58,215.7
"2016-03-27 00:53:30",1493318,4.362,256.3,6.571,1.325,3.128,99.35506,-2.343,-1.018,59.42,0,109.7,13.32,-1.60,218.3
"2016-03-27 00:54:00",1493319,4.938,260.9,6.05,1.226,4.452,99.35307,-2.348,-0.957,59.58,0,109.7,13.32,-1.60,222.9
"2016-03-27 00:54:30",1493320,4.452,258.3,7.38,1.284,3.419,99.34007,-2.382,-1.1,59.53,0,109.7,13.33,-1.64,220.3
"2016-03-27 00:55:00",1493321,3.79,252.8,6.272,1.184,2.642,99.32253,-2.426,-1.09,59.64,0,109.7,13.34,-1.68,214.8
"2016-03-27 00:55:30",1493322,4.292,257.3,6.274,1.3,3.413,99.32111,-2.43,-1.078,59.77,0,109.7,13.34,-1.69,219.3
"2016-03-27 00:56:00",1493323,4.327,256,6.327,1.3,2.895,99.32362,-2.423,-1.111,59.89,0,109.7,13.34,-1.68,218.0
"2016-03-27 00:56:30",1493324,4.539,259.2,6.665,1.334,3.216,99.31511,-2.445,-1.143,59.91,0,109.7,13.34,-1.70,221.2
"2016-03-27 00:57:00",1493325,4.38,257.6,6.913,1.337,3.325,99.30773,-2.464,-1.102,60.01,0,109.7,13.34,-1.72,219.6
"2016-03-27 00:57:30",1493326,4.252,258.3,7.077,1.285,3.597,99.30402,-2.473,-1.15,60.03,0,109.7,13.34,-1.73,220.3
"2016-03-27 00:58:00",1493327,4.612,261.3,7.081,1.335,3.753,99.30627,-2.468,-1.184,60.07,0,109.7,13.34,-1.72,223.3
"2016-03-27 00:58:30",1493328,4.288,260.4,7.107,1.3,3.114,99.30032,-2.483,-1.158,60.12,0,109.7,13.34,-1.74,222.4
"2016-03-27 00:59:00",1493329,4.419,262.5,7.143,1.35,3.512,99.28475,-2.523,-1.219,60.16,0,109.7,13.34,-1.78,224.5
"2016-03-27 00:59:30",1493330,4.303,262.3,6.717,1.288,3.368,99.27934,-2.536,-1.189,60.22,0,109.7,13.35,-1.79,224.3
"2016-03-27 01:00:00",1493331,4.262,261.4,6.252,1.325,3.033,99.28046,-2.533,-1.257,60.18,0,109.7,13.34,-1.79,223.4
"2016-03-27 01:00:30",1493332,5.008,267.1,5.959,1.23,4.671,99.2813,-2.531,-1.223,60.2,0,109.7,13.35,-1.79,229.1
"2016-03-27 01:01:00",1493333,4.436,263.3,6.832,1.381,3.487,99.27705,-2.542,-1.295,60.17,0,109.7,13.35,-1.80,225.3
"2016-03-27 01:01:30",1493334,4.24,263.7,7.24,1.263,3.33,99.26826,-2.565,-1.281,60.3,0,109.7,13.35,-1.82,225.7
"2016-03-27 01:02:00",1493335,4.31,266.3,8.02,1.328,2.751,99.26033,-2.585,-1.308,60.29,0,109.7,13.35,-1.84,228.3
"2016-03-27 01:02:30",1493336,4.576,267.2,7.092,1.338,3.374,99.25296,-2.603,-1.328,60.23,0,109.7,13.35,-1.86,229.2
"2016-03-27 01:03:00",1493337,4.567,267.6,6.805,1.245,3.663,99.25296,-2.603,-1.327,60.27,0,109.7,13.35,-1.86,229.6
"2016-03-27 01:03:30",1493338,5.134,271.6,7.269,1.333,3.564,99.25127,-2.608,-1.318,60.29,0,109.6,13.36,-1.86,233.6
"2016-03-27 01:04:00",1493339,4.791,268.9,6.438,1.276,3.053,99.23882,-2.64,-1.343,60.29,0,109.6,13.36,-1.90,230.9
"2016-03-27 01:04:30",1493340,5.092,270.7,6.56,1.31,3.062,99.23061,-2.66,-1.391,60.3,0,109.6,13.36,-1.92,232.7
"2016-03-27 01:05:00",1493341,5.31,272.6,6.635,1.343,3.784,99.22014,-2.687,-1.275,60.4,0,109.6,13.36,-1.94,234.6
"2016-03-27 01:05:30",1493342,4.56,267.5,6.03,1.279,2.626,99.2235,-2.679,-1.462,60.27,0,109.6,13.36,-1.94,229.5
"2016-03-27 01:06:00",1493343,5.148,269.3,7.665,1.326,3.99,99.22604,-2.672,-1.354,60.42,0,109.6,13.36,-1.93,231.3
"2016-03-27 01:06:30",1493344,4.726,268.4,6.525,1.205,2.397,99.23446,-2.651,-1.408,60.48,0,109.6,13.36,-1.91,230.4
"2016-03-27 01:07:00",1493345,5.685,272.8,6.611,1.217,3.755,99.23471,-2.65,-1.402,60.46,0,109.6,13.36,-1.91,234.8
"2016-03-27 01:07:30",1493346,4.996,271.1,6.893,1.352,2.967,99.2279,-2.667,-1.426,60.47,0,109.6,13.36,-1.92,233.1
"2016-03-27 01:08:00",1493347,4.967,270.7,7.313,1.361,3.262,99.2225,-2.681,-1.395,60.48,0,109.6,13.36,-1.94,232.7
"2016-03-27 01:08:30",1493348,5.008,268.9,6.804,1.309,3.578,99.21315,-2.705,-1.449,60.48,0,109.6,13.36,-1.96,230.9
"2016-03-27 01:09:00",1493349,4.654,264.8,7.109,1.321,3.314,99.21453,-2.701,-1.463,60.58,0,109.6,13.36,-1.96,226.8
"2016-03-27 01:09:30",1493350,5.028,265.7,6.311,1.284,3.558,99.21622,-2.697,-1.454,60.72,0,109.6,13.36,-1.95,227.7
"2016-03-27 01:10:00",1493351,4.998,267,6.9,1.383,3.293,99.21819,-2.692,-1.492,60.79,0,109.6,13.36,-1.95,229.0
"2016-03-27 01:10:30",1493352,5.066,267.8,6.741,1.339,3.842,99.21875,-2.691,-1.436,60.86,0,109.6,13.36,-1.95,229.8
"2016-03-27 01:11:00",1493353,4.524,264.5,7.635,1.251,3.473,99.21875,-2.691,-1.442,60.85,0,109.6,13.36,-1.95,226.5
"2016-03-27 01:11:30",1493354,5.59,272.6,6.699,1.243,4.735,99.21563,-2.699,-1.437,60.87,0,109.6,13.36,-1.96,234.6
"2016-03-27 01:12:00",1493355,4.976,269,7.228,1.34,2.974,99.20969,-2.714,-1.56,60.65,0,109.6,13.37,-1.97,231.0
"2016-03-27 01:12:30",1493356,4.865,264.2,6.969,1.373,3.349,99.20064,-2.737,-1.461,60.69,0,109.6,13.37,-1.99,226.2
"2016-03-27 01:13:00",1493357,4.861,263.5,7.404,1.424,3.112,99.19526,-2.751,-1.515,60.72,0,109.6,13.37,-2.01,225.5
"2016-03-27 01:13:30",1493358,4.615,262.4,7.156,1.341,3.422,99.18761,-2.77,-1.476,60.82,0,109.6,13.37,-2.03,224.4
"2016-03-27 01:14:00",1493359,5.017,267.2,7.316,1.348,4.201,99.18478,-2.777,-1.505,60.8,0,109.6,13.37,-2.03,229.2
"2016-03-27 01:14:30",1493360,4.8,265.9,6.559,1.307,3.779,99.18478,-2.777,-1.528,60.79,0,109.6,13.37,-2.03,227.9
"2016-03-27 01:15:00",1493361,4.944,271.5,6.865,1.362,3.157,99.18478,-2.777,-1.521,60.79,0,109.5,13.37,-2.03,233.5
"2016-03-27 01:15:30",1493362,4.744,268.6,6.738,1.311,2.799,99.18534,-2.776,-1.519,60.73,0,109.6,13.37,-2.03,230.6
"2016-03-27 01:16:00",1493363,5.473,271,6.76,1.231,4.586,99.18787,-2.769,-1.48,60.77,0,109.6,13.37,-2.03,233.0
"2016-03-27 01:16:30",1493364,4.4,265.4,7.189,1.292,2.655,99.19152,-2.76,-1.553,60.69,0,109.6,13.37,-2.02,227.4
"2016-03-27 01:17:00",1493365,4.974,267.9,7.076,1.336,4.086,99.19376,-2.754,-1.516,60.76,0,109.6,13.37,-2.01,229.9
"2016-03-27 01:17:30",1493366,4.935,267.6,6.982,1.341,3.401,99.19741,-2.745,-1.518,60.74,0,109.5,13.37,-2.00,229.6
"2016-03-27 01:18:00",1493367,5.271,271.8,7.008,1.353,3.382,99.20051,-2.737,-1.51,60.77,0,109.6,13.37,-1.99,233.8
"2016-03-27 01:18:30",1493368,4.937,270.7,6.767,1.39,3.218,99.2019,-2.734,-1.543,60.75,0,109.6,13.38,-1.99,232.7
"2016-03-27 01:19:00",1493369,4.934,269.5,6.774,1.297,3.322,99.20556,-2.724,-1.559,60.69,0,109.6,13.37,-1.98,231.5
"2016-03-27 01:19:30",1493370,4.894,269.8,6.742,1.3,3.564,99.20583,-2.724,-1.533,60.73,0,109.6,13.38,-1.98,231.8
"2016-03-27 01:20:00",1493371,4.883,271.2,7.284,1.361,3.406,99.20638,-2.722,-1.526,60.77,0,109.6,13.38,-1.98,233.2
"2016-03-27 01:20:30",1493372,5.032,271.6,7.094,1.324,3.482,99.20184,-2.734,-1.549,60.8,0,109.6,13.38,-1.99,233.6
"2016-03-27 01:21:00",1493373,5.388,272.9,6.922,1.348,3.937,99.199,-2.741,-1.481,60.81,0,109.6,13.38,-2.00,234.9
"2016-03-27 01:21:30",1493374,5.391,270.7,7.073,1.298,4.001,99.19785,-2.744,-1.488,60.81,0,109.6,13.38,-2.00,232.7
"2016-03-27 01:22:00",1493375,4.705,267.8,7.067,1.361,3.559,99.19615,-2.748,-1.515,60.79,0,109.6,13.39,-2.01,229.8
"2016-03-27 01:22:30",1493376,5.468,272.2,6.58,1.254,4.449,99.19868,-2.742,-1.544,60.79,0,109.6,13.38,-2.00,234.2
"2016-03-27 01:23:00",1493377,4.489,266.7,6.33,1.242,2.608,99.2012,-2.735,-1.602,60.76,0,109.6,13.38,-1.99,228.7
"2016-03-27 01:23:30",1493378,5,268.9,7.114,1.339,4.305,99.2012,-2.735,-1.495,60.9,0,109.6,13.37,-1.99,230.9
"2016-03-27 01:24:00",1493379,4.675,268.4,7.405,1.394,3.412,99.20092,-2.736,-1.512,60.88,0,109.6,13.37,-1.99,230.4
"2016-03-27 01:24:30",1493380,5.109,269.6,6.936,1.344,3.98,99.19979,-2.739,-1.565,60.8,0,109.6,13.37,-2.00,231.6
"2016-03-27 01:25:00",1493381,4.913,268,6.363,1.334,3.669,99.19413,-2.753,-1.56,60.8,0,109.6,13.37,-2.01,230.0
"2016-03-27 01:25:30",1493382,4.939,268.7,7.836,1.363,4.124,99.19299,-2.756,-1.547,60.78,0,109.6,13.38,-2.01,230.7
"2016-03-27 01:26:00",1493383,4.887,268.1,7.072,1.347,3.872,99.18819,-2.769,-1.531,60.75,0,109.6,13.37,-2.03,230.1
"2016-03-27 01:26:30",1493384,5.12,265.5,6.783,1.371,3.555,99.1862,-2.774,-1.574,60.73,0,109.6,13.38,-2.03,227.5
"2016-03-27 01:27:00",1493385,5.08,265.1,6.347,1.292,4.29,99.18479,-2.777,-1.443,60.86,0,109.5,13.38,-2.03,227.1
"2016-03-27 01:27:30",1493386,4.07,259,6.395,1.17,2.694,99.1845,-2.778,-1.575,60.73,0,109.5,13.38,-2.04,221.0
"2016-03-27 01:28:00",1493387,4.931,263.4,6.711,1.32,4.871,99.1845,-2.778,-1.521,60.78,0,109.5,13.38,-2.04,225.4
"2016-03-27 01:28:30",1493388,4.081,258,6.461,1.277,2.801,99.18535,-2.776,-1.579,60.75,0,109.5,13.39,-2.03,220.0
"2016-03-27 01:29:00",1493389,5.094,264,6.121,1.311,4.673,99.18648,-2.773,-1.478,60.79,0,109.5,13.39,-2.03,226.0
"2016-03-27 01:29:30",1493390,4.516,262.1,7.049,1.354,3.609,99.19125,-2.761,-1.525,60.75,0,109.5,13.39,-2.02,224.1
"2016-03-27 01:30:00",1493391,4.434,262,6.787,1.349,4.107,99.19349,-2.755,-1.561,60.71,0,109.5,13.39,-2.01,224.0
"2016-03-27 01:30:30",1493392,4.151,260.5,6.576,1.29,3.632,99.19771,-2.744,-1.527,60.69,0,109.5,13.39,-2.00,222.5
"2016-03-27 01:31:00",1493393,4.235,260.9,6.629,1.343,3.7,99.20023,-2.738,-1.534,60.66,0,109.5,13.39,-2.00,222.9
"2016-03-27 01:31:30",1493394,3.97,261.2,7.393,1.265,3.077,99.19995,-2.739,-1.601,60.59,0,109.5,13.39,-2.00,223.2
"2016-03-27 01:32:00",1493395,3.957,263.2,7.46,1.363,3.354,99.20192,-2.734,-1.547,60.65,0,109.5,13.39,-1.99,225.2
"2016-03-27 01:32:30",1493396,4.007,260.3,7.392,1.323,3.693,99.20444,-2.727,-1.5,60.64,0,109.5,13.39,-1.98,222.3
"2016-03-27 01:33:00",1493397,3.638,261.4,8.91,1.289,3.702,99.20585,-2.724,-1.491,60.56,0,109.5,13.39,-1.98,223.4
"2016-03-27 01:33:30",1493398,3.376,255.9,9.36,1.343,3.043,99.20698,-2.721,-1.588,60.44,0,109.5,13.39,-1.98,217.9
"2016-03-27 01:34:00",1493399,3.814,257.5,7.934,1.388,3.823,99.2095,-2.714,-1.525,60.47,0,109.5,13.4,-1.97,219.5
"2016-03-27 01:34:30",1493400,3.562,258.3,7.255,1.338,2.873,99.21175,-2.709,-1.575,60.4,0,109.5,13.4,-1.97,220.3
"2016-03-27 01:35:00",1493401,3.486,256.9,6.83,1.245,3.136,99.20979,-2.714,-1.462,60.48,0,109.5,13.4,-1.97,218.9
"2016-03-27 01:35:30",1493402,3.412,258.5,6.648,1.235,3.151,99.21091,-2.711,-1.518,60.4,0,109.5,13.4,-1.97,220.5
"2016-03-27 01:36:00",1493403,3.934,266.6,7.656,1.289,3.768,99.21371,-2.703,-1.539,60.32,0,109.5,13.4,-1.96,228.6
"2016-03-27 01:36:30",1493404,3.589,260,7.572,1.367,3.876,99.21456,-2.701,-1.517,60.37,0,109.5,13.4,-1.96,222.0
"2016-03-27 01:37:00",1493405,3.334,259.6,6.714,1.355,3.283,99.21568,-2.698,-1.564,60.28,0,109.5,13.4,-1.96,221.6
"2016-03-27 01:37:30",1493406,3.21,260,7.209,1.24,2.581,99.21737,-2.694,-1.518,60.26,0,109.5,13.4,-1.95,222.0
"2016-03-27 01:38:00",1493407,3.408,259.1,8.65,1.335,3.646,99.21793,-2.693,-1.494,60.25,0,109.5,13.4,-1.95,221.1
"2016-03-27 01:38:30",1493408,3.41,263.4,7.254,1.295,3.325,99.21822,-2.692,-1.478,60.25,0,109.5,13.4,-1.95,225.4
"2016-03-27 01:39:00",1493409,3.686,262.6,7.467,1.378,3.827,99.21822,-2.692,-1.476,60.22,0,109.5,13.4,-1.95,224.6
"2016-03-27 01:39:30",1493410,3.721,262.7,7.16,1.322,3.243,99.21822,-2.692,-1.572,60.12,0,109.5,13.4,-1.95,224.7
"2016-03-27 01:40:00",1493411,3.452,260,7.478,1.278,3.2,99.21822,-2.692,-1.456,60.21,0,109.4,13.4,-1.95,222.0
"2016-03-27 01:40:30",1493412,3.178,265.4,5.53,1.388,2.828,99.21822,-2.692,-1.51,60.11,0,109.5,13.39,-1.95,227.4
"2016-03-27 01:41:00",1493413,4.25,266,6.464,1.296,4.63,99.21822,-2.692,-1.399,60.2,0,109.5,13.4,-1.95,228.0
"2016-03-27 01:41:30",1493414,3.99,264.7,7.231,1.372,3.987,99.21822,-2.692,-1.492,60.11,0,109.5,13.4,-1.95,226.7
"2016-03-27 01:42:00",1493415,3.165,261.2,5.248,1.109,2.675,99.21822,-2.692,-1.545,60.07,0,109.5,13.4,-1.95,223.2
"2016-03-27 01:42:30",1493416,3.918,264.9,6.645,1.322,3.905,99.21822,-2.692,-1.463,60.11,0,109.5,13.4,-1.95,226.9
"2016-03-27 01:43:00",1493417,3.906,265.2,7.064,1.31,3.41,99.21822,-2.692,-1.517,60.03,0,109.5,13.4,-1.95,227.2
"2016-03-27 01:43:30",1493418,2.987,261.4,4.887,1.18,2.777,99.21822,-2.692,-1.479,60.05,0,109.5,13.4,-1.95,223.4
"2016-03-27 01:44:00",1493419,3.928,264.5,7.693,1.331,3.976,99.21822,-2.692,-1.486,59.99,0,109.5,13.4,-1.95,226.5
"2016-03-27 01:44:30",1493420,3.566,266.4,8.7,1.332,3.669,99.21822,-2.692,-1.465,59.98,0,109.5,13.4,-1.95,228.4
"2016-03-27 01:45:00",1493421,3.794,264.3,8.23,1.354,3.661,99.21822,-2.692,-1.501,59.93,0,109.5,13.4,-1.95,226.3
"2016-03-27 01:45:30",1493422,2.851,260,5.802,1.185,2.621,99.21822,-2.692,-1.494,59.9,0,109.5,13.4,-1.95,222.0